Regional Weather Roundup
Issued by NWS

Home | Current Version | Previous Version | Text Only | Print | Product List | Glossary Off
Versions: 1 2 3 4 5 6 7 8 9 10 11 12 13 14 15 16 17 18 19 20 21 22 23 24 25 26 27 28 29 30 31 32 33 34 35 36 37 38 39 40 41 42 43 44 45 46 47 48 49 50

000
ASUS43 KLOT 221904
RWRIL

ILLINOIS REGIONAL WEATHER ROUNDUP
NATIONAL WEATHER SERVICE CHICAGO/ROMEOVILLE IL
100 PM CST MON JAN 22 2018

NOTE: "FAIR" INDICATES FEW OR NO CLOUDS BELOW 12,000 FEET WITH NO
SIGNIFICANT WEATHER AND/OR OBSTRUCTIONS TO VISIBILITY.

* THESE STATIONS ARE NOT UNDER NWS QUALITY CONTROL. THEY ALSO MAY NOT
  REPORT WEATHER SUCH AS PRECIPITATION OR FOG.

ILZ001-002-007-009-015-016-024-222000-
NORTHWEST ILLINOIS

CITY           SKY/WX    TMP DP  RH WIND       PRES   REMARKS
MOLINE         PTSUNNY   56  44  64 SW18G28   29.40F
STERLING*        N/A     55  50  83 VRB6      29.42
SAVANNA*       FAIR      54  51  92 SE3       29.40F
$$

ILZ003-004-008-010-011-017-018-222000-
NORTH CENTRAL ILLINOIS

CITY           SKY/WX    TMP DP  RH WIND       PRES   REMARKS
ROCKFORD       CLOUDY    51  50  96 S12       29.44F
FREEPORT*      CLOUDY    44  44 100 NE3       29.44F
ROCHELLE*      CLOUDY    52  51  99 S17G25    29.44F
DE KALB*       CLOUDY    49  49 100 S15       29.45F FOG
PERU*          PTSUNNY   54  50  86 S16G23    29.44F
$$

ILZ005-006-012>014-019>023-222000-
NORTHEAST ILLINOIS

CITY           SKY/WX    TMP DP  RH WIND       PRES   REMARKS
CHICAGO-OHARE  DRIZZLE   51  49  92 S15       29.47F FOG
CHICAGO-MIDWAY LGT RAIN  52  51  97 S17G28    29.48F FOG
AURORA         CLOUDY    50  50 100 S14       29.46F FOG
LANSING*       LGT RAIN  51  51  99 S24G33    29.52F
JOLIET*        CLOUDY    53  52  97 S15G25    29.48F
WAUKEGAN       CLOUDY    51  50  96 S14       29.46F
DUPAGE AIRPORT CLOUDY    50  50 100 S18G25    29.46F FOG
KANKAKEE*      CLOUDY   N/A N/A N/A S18G25    29.52F
WHEELING       CLOUDY    52  51  97 S16G25    29.48F
MORRIS*        CLOUDY    52  51  95 S15       29.46F
NORTHERLY ISL    N/A     51  48  89 S15         N/A
$$

LMZ740>746-222000-
SOUTHERN LAKE MICHIGAN

STATION/POSITION SKY/WX   TEMP    WIND        PRES    VSBY  WAVE
                          AIR SEA DIR/SP/G                  HT/PER
                          (F)     (DEG/KT/KT) (MB)    (MI)  (FT/S)
HARRISON CRIB              49     190/ 24/ 25   N/A
BURNHAM HARBOR             51     180/ 12/ 21   N/A
CALUMET HARBOR             51     180/ 14/ 22  999.2F
BURNS HARBOR               53     190/ 16/ 23 1000.7F
MICHIGAN CITY              53     170/ 19/ 23   N/A
$$

ILZ025>027-034>036-040-047-049-050-058-095>099-222000-
WEST-CENTRAL ILLINOIS

CITY           SKY/WX    TMP DP  RH WIND       PRES   REMARKS
QUINCY         MOSUNNY   50  35  56 SW24G32   29.45F
GALESBURG*     PTSUNNY   56  46  69 SW22      29.42F
MACOMB*        MOSUNNY   54  45  69 SW20      29.45F
JACKSONVILLE*  PTSUNNY   56  40  54 S20G30    29.43F
PITTSFIELD*    MOSUNNY   54  39  58 SW18      29.46F
$$

ILZ028>032-037-038-041>044-048-051>054-059>061-222000-
CENTRAL ILLINOIS

CITY           SKY/WX    TMP DP  RH WIND       PRES   REMARKS
BLOOMINGTON    CLOUDY    55  49  80 S25       29.46F
DECATUR        PTSUNNY   56  51  84 S25G35    29.49F
PEORIA         FAIR      59  48  67 S20G35    29.43F
LACON*         PTSUNNY   57  48  72 S21G28    29.42F
LINCOLN*       PTSUNNY   58  50  74 S22G29    29.46F
SPRINGFIELD    PTSUNNY   60  50  69 S20G36    29.46F
TAYLORVILLE    PTSUNNY   58  51  77 S21G30    29.48F
$$

ILZ033-039-045-046-055>057-062-063-222000-
EAST-CENTRAL ILLINOIS

CITY           SKY/WX    TMP DP  RH WIND       PRES   REMARKS
CHAMPAIGN      CLOUDY    52  49  89 S25G31    29.52F
DANVILLE*      CLOUDY    52  48  88 S22G33    29.53F
RANTOUL*       CLOUDY    54  51  92 S25G31    29.52F
MATTOON        CLOUDY    53  48  83 S15G28    29.53F
$$

ILZ079-100>102-222000-
SOUTHWEST ILLINOIS

CITY           SKY/WX    TMP DP  RH WIND       PRES   REMARKS
ALTON          MOSUNNY   59  41  51 S21G30    29.47F
BELLEVILLE     FAIR      60  44  54 S22G29    29.48F
CAHOKIA*       PTSUNNY   61  35  37 S15G33    29.48F
SPARTA*        FAIR      58  43  55 S18G32    29.54F
$$

ILZ064>066-069>071-074>076-080>082-084>086-088>090-092>094-222000-
SOUTH-CENTRAL ILLINOIS

CITY           SKY/WX    TMP DP  RH WIND       PRES   REMARKS
CARBONDALE     FAIR      59  44  57 S22G35    29.57F
CAIRO*         FAIR      59  46  61 SW17G28   29.62F
EFFINGHAM*     CLOUDY    56  50  81 SE14G25   29.57F
MARION         MOSUNNY   59  45  58 S14G21    29.59F
MT. VERNON     FAIR      59  49  69 S18G24    29.56F
CENTRALIA*     FAIR      59  49  68 S23G31    29.53F
SALEM*         FAIR      59  47  65 S20G30    29.54F
METROPOLIS*    FAIR      61  46  56 S16G26    29.63F
$$

ILZ067-068-072-073-078-083-087-091-222000-
SOUTHEAST ILLINOIS

CITY           SKY/WX    TMP DP  RH WIND       PRES   REMARKS
LAWRENCEVILLE  CLOUDY    53  50  89 S21G31    29.61F
FLORA*         PTSUNNY   57  52  81 S25G31    29.57F
FAIRFIELD*     CLOUDY    56  51  82 S12G22    29.58F
HARRISBURG*    FAIR      59  50  71 S21G29    29.60F
ROBINSON*      CLOUDY    52  49  90 S22G32    29.59F
CARMI*         FAIR      56  52  86 S21G26    29.60F
$$

ABBREVIATIONS USED IN REMARKS
   TC - TEMPERATURE IN CELSIUS
  WCI - WIND CHILL INDEX
   HX - HEAT INDEX
  VSB - VISIBILITY
$$





USA.gov is the U.S. government's official web portal to all federal, state and local government web resources and services.